Location: *
(43.2833°N, 0.1333°E)
Time: 09:59:08
(UTC+00:00)

Daily predictions for brighter satellites

Satellite Brightness Start Highest point End
(mag) Time Altitude Azimuth Time Altitude Azimuth Time Altitude Azimuth
Cosmos 1110 Rocket 4.4 18:42:57 10° N 18:47:59 44° ENE 18:52:57 10° SE
Cosmos 332 Rocket 3.9 18:44:23 10° NNW 18:49:17 63° ENE 18:54:08 10° SSE
SL-16 R/B 2.9 18:45:02 10° SSE 18:49:52 30° ESE 18:54:43 10° NE
Cosmos 2333 Rocket 3.9 18:44:53 10° SW 18:50:09 38° WNW 18:55:26 10° NNE
STARLINK-1230 3.7 18:46:20 10° SW 18:50:17 56° SE 18:54:14 10° ENE
Cosmos 1892 Rocket 3.9 18:47:42 10° N 18:52:03 48° ENE 18:56:22 10° SSE
STARLINK-1234 3.4 18:50:42 10° WSW 18:53:40 57° NNW 18:56:38 10° NE
USA 186 3.1 18:50:54 10° SE 18:53:43 24° ENE 18:56:31 10° NNE
CSL-04 Rocket 3.8 18:48:46 10° S 18:54:06 79° WSW 18:59:25 10° NNW
STARLINK-1096 4.5 18:50:52 10° NW 18:54:36 36° NNE 18:58:19 10° E
ARGOS Delta rocket 4.4 18:49:52 10° SE 18:54:41 46° ENE 18:59:45 10° N
STARLINK-1243 3.6 18:51:00 10° SW 18:54:58 61° SE 18:58:57 10° ENE
Meteor 2-21 Rocket 4.4 18:49:30 10° N 18:55:35 81° E 19:01:39 10° S
Meteor 2-16 Rocket 4.5 18:50:05 10° N 18:56:14 69° E 19:02:21 10° SSE
NOSS 2-1 (E) 4.2 18:53:04 10° WSW 18:56:21 45° NW 18:59:53 10° NNE
Cosmos 1626 3.4 18:53:30 10° NNE 18:56:27 22° ENE 18:59:24 10° SE
STARLINK-1079 4.4 18:55:19 10° NW 18:59:05 38° NNE 19:02:49 10° E
STARLINK-1236 3.5 18:55:37 10° SW 18:59:37 67° SE 19:03:38 10° ENE
Okean 1-7 Rocket 3.8 18:55:41 10° N 18:59:58 49° ENE 19:04:13 10° SSE
Cosmos 1242 Rocket 4.1 18:57:01 10° NNW 19:00:16 39° W 19:03:32 10° SSW
STARLINK-1116 4.3 18:59:46 10° NW 19:03:35 40° NNE 19:07:08 11° E
SJ-11-01 4.3 18:59:54 10° SSE 19:04:30 63° ENE 19:09:11 10° N
H-2A R/B 2.4 19:00:27 10° SE 19:05:34 49° ENE 19:10:34 10° N
STARLINK-1269 3.5 19:04:58 10° SW 19:09:00 79° SE 19:13:03 10° ENE
STARLINK-1118 2.1 19:07:35 10° WNW 19:09:47 69° SW 19:11:31 14° SE
Cosmos 1544 Rocket 3.9 19:07:14 10° SSE 19:11:23 44° E 19:15:36 10° NNE
STARLINK-1094 4.1 19:08:44 10° NW 19:12:36 45° NNE 19:15:46 14° E
HJ-1C 3.6 19:10:17 10° S 19:13:36 74° W 19:16:58 10° NNW
STARLINK-1200 3.5 19:09:39 10° SW 19:13:42 85° SE 19:17:45 10° NE
Cosmos 1745 Rocket 4.0 19:07:51 10° N 19:14:12 86° E 19:20:26 10° S
Cosmos 2297 4.0 19:10:10 10° NNW 19:15:39 48° ENE 19:20:56 11° SE
USA 234 3.4 19:10:35 10° NE 19:17:01 56° SE 19:23:24 10° SSW
STARLINK-1117 4.0 19:13:14 10° NW 19:17:08 48° NNE 19:20:06 16° E
STARLINK-1192 3.5 19:14:18 10° SW 19:18:21 88° NW 19:22:25 10° NE
Meteor 2-5 Rocket 3.9 19:13:51 10° NNW 19:19:32 81° W 19:25:05 10° S
Cosmos 2237 Rocket 2.9 19:14:23 10° SW 19:19:56 60° WNW 19:25:31 10° NNE
Cosmos 1805 3.8 19:16:08 10° SSW 19:20:00 63° W 19:23:54 10° N
STARLINK-1078 3.9 19:17:43 10° NW 19:21:39 51° NNE 19:24:26 18° ESE
ADEOS Rocket 4.1 19:15:23 10° N 19:22:00 53° WNW 19:27:55 10° SW
STARLINK-1244 3.6 19:19:05 10° WSW 19:23:08 82° NW 19:27:12 10° NE
STARLINK-1201 4.0 19:20:28 10° WSW 19:23:37 45° NNW 19:26:47 10° NE
Cosmos 1302 Rocket 4.4 19:20:29 10° N 19:25:33 45° ENE 19:29:43 15° SE
STARLINK-1108 3.8 19:22:14 10° NW 19:26:12 55° NNE 19:28:48 20° ESE
Cosmos 1269 Rocket 3.9 19:22:01 10° SSW 19:27:16 74° ESE 19:32:35 10° NNE
Cosmos 2278 Rocket 3.4 19:22:30 10° NW 19:27:50 43° WSW 19:33:08 10° S
STARLINK-1138 3.7 19:23:47 10° WSW 19:27:50 76° NW 19:31:54 10° NE
CZ-2C R/B 3.5 19:24:49 10° NE 19:29:02 25° E 19:32:38 12° SE
STARLINK-1066 2.8 19:27:28 10° NW 19:30:39 82° NE 19:32:18 25° ESE
STARLINK-1071 3.7 19:26:44 10° NW 19:30:43 59° NNE 19:33:08 22° ESE
STARLINK-1081 2.8 19:27:57 10° NW 19:31:05 83° NE 19:32:41 26° ESE
STARLINK-1070 2.8 19:28:23 10° NW 19:31:31 83° NE 19:33:06 26° ESE
STARLINK-1124 3.8 19:27:37 10° NW 19:31:45 61° NNE 19:34:14 22° ESE
STARLINK-1069 2.8 19:28:48 10° NW 19:31:57 84° NNE 19:33:34 26° ESE
STARLINK-1085 2.8 19:29:15 10° NW 19:32:24 85° NNE 19:34:00 27° ESE
STARLINK-1143 3.8 19:28:35 10° WSW 19:32:37 71° NNW 19:36:41 10° NE
STARLINK-1086 2.8 19:29:45 10° NW 19:32:53 86° NE 19:34:25 27° ESE
STARLINK-1095 2.8 19:30:11 10° NW 19:33:19 86° NNE 19:34:50 27° SE
CZ-4 R/B 4.4 19:31:12 10° SW 19:33:30 15° W 19:35:48 10° NW
ARGOS 3.1 19:28:15 10° SSE 19:33:38 73° ENE 19:39:01 10° N
STARLINK-1077 2.8 19:30:38 10° NW 19:33:46 87° NE 19:35:16 28° SE
STARLINK-1075 2.8 19:31:05 10° NW 19:34:13 88° NE 19:35:42 28° SE
STARLINK-1093 2.8 19:31:31 10° NW 19:34:40 89° NNE 19:36:10 28° SE
Meteor 1-24 Rocket 3.7 19:29:20 10° NNW 19:34:53 81° W 19:40:13 10° S
STARLINK-1074 2.8 19:31:57 10° NW 19:35:07 90° ENE 19:36:36 28° SE
STARLINK-1110 3.7 19:31:15 10° NW 19:35:15 63° NNE 19:37:29 25° ESE
STARLINK-1087 2.8 19:32:26 10° NW 19:35:34 89° W 19:37:00 29° SE
STARLINK-1088 2.8 19:32:54 10° NW 19:36:01 89° SW 19:37:26 29° SE
STARLINK-1115 2.8 19:33:18 10° NW 19:36:28 88° SW 19:37:55 29° SE
STARLINK-1076 2.8 19:33:45 10° NW 19:36:54 87° SW 19:38:20 30° SE
STARLINK-1092 2.8 19:34:13 10° NW 19:37:22 86° SW 19:38:47 30° SE
STARLINK-1080 2.8 19:34:42 10° NW 19:37:49 85° SW 19:39:10 31° SE
MOS 1 4.2 19:32:17 10° SSE 19:37:55 84° ENE 19:43:37 10° NNW
STARLINK-1090 2.8 19:35:08 10° NW 19:38:16 85° SW 19:39:36 31° SE
STARLINK-1089 2.8 19:35:36 10° NW 19:38:43 84° SW 19:40:02 31° SE
SL-24 R/B 4.4 19:34:36 10° NNE 19:38:56 41° E 19:42:45 10° SSE
STARLINK-1107 2.8 19:36:03 10° NW 19:39:10 83° SW 19:40:28 32° SE
Cosmos 1470 2.8 19:36:29 10° S 19:40:15 54° E 19:44:03 10° NNE
STARLINK-1241 4.0 19:39:06 10° WSW 19:43:04 59° NNW 19:47:03 10° NE
Cosmos 2315 Rocket 4.0 19:38:06 10° S 19:44:21 74° E 19:50:42 10° NNE
STARLINK-1122 3.5 19:40:24 10° NW 19:44:26 73° NE 19:46:17 30° ESE
SL-08 RB Rocket 3.6 19:40:53 13° SSE 19:44:49 66° ENE 19:49:20 10° N
SJ-6B 2.8 19:42:00 11° SSE 19:45:55 84° E 19:50:03 10° N
MetOp-A 4.3 19:42:29 17° SE 19:46:27 53° ENE 19:51:39 10° N
ISS -1.8 19:43:57 10° NW 19:46:39 22° N 19:48:11 16° NE
Resurs 1-3 4.0 19:44:44 25° SE 19:46:46 42° ENE 19:50:55 10° N
STARLINK-1239 4.2 19:43:43 10° WSW 19:47:40 56° NNW 19:51:30 11° NE
Cosmos 1758 3.3 19:44:06 10° S 19:48:08 63° E 19:52:12 10° NNE
STARLINK-1126 3.5 19:45:01 10° NW 19:49:03 79° NNE 19:50:44 34° ESE
BREEZE M DEB (TANK) 4.5 19:39:02 10° SW 19:51:32 41° SSE 19:53:49 27° E
STARLINK-1240 4.3 19:48:21 10° WSW 19:52:17 52° NNW 19:55:56 12° NE
CZ-2C R/B 3.2 19:47:14 10° S 19:52:20 73° WSW 19:57:14 10° NNW
STARLINK-1082 3.5 19:49:34 10° NW 19:53:38 85° NE 19:55:08 37° ESE
Resurs 01 Rocket 2.3 19:53:04 31° E 19:54:10 36° ENE 19:58:12 10° N
FREGAT/IRIS 3.8 19:52:27 11° SSW 19:54:53 37° W 19:57:27 10° NNW
Abrixas rocket 2.9 19:52:08 10° SW 19:54:14 33° S 19:54:14 33° S
Cosmos 2369 Rocket 3.0 19:50:48 10° N 19:55:56 33° NE 19:57:50 27° E
STARLINK-1216 4.4 19:53:01 10° WSW 19:56:56 49° NNW 20:00:23 13° NE
STARLINK-1100 3.5 19:54:08 10° NW 19:58:12 89° SW 19:59:31 41° SE
Meteor 2-15 Rocket 4.3 19:54:22 10° S 20:00:24 70° E 20:06:27 10° NNE
IRIDIUM 114 4.3 19:57:38 10° N 20:02:48 58° E 20:05:35 26° SSE
STARLINK-1083 3.5 19:58:45 10° NW 20:02:48 83° SW 20:03:57 46° SE
SPOT 3 Rocket 3.5 20:00:43 18° SSE 20:04:36 84° ENE 20:09:51 10° NNW
Cosmos 1726 3.8 20:06:30 21° NE 20:06:30 21° NE 20:08:08 10° NNE
SL-14 R/B 4.3 20:02:55 10° NNW 20:06:49 47° W 20:10:40 10° SSW
STARLINK-1125 3.5 20:03:22 10° WNW 20:07:26 77° SW 20:08:23 50° SE
Meteor 1-21 Rocket 4.2 20:03:35 10° N 20:09:07 61° ENE 20:11:31 33° SE
STARLINK-1109 3.6 20:07:41 10° WNW 20:11:44 72° SW 20:12:32 53° SSE
Cosmos 1709 Rocket 4.4 20:05:39 10° NNW 20:11:46 63° W 20:17:47 10° S
IRIDIUM 103 4.2 20:06:45 10° N 20:11:59 71° E 20:14:45 28° SSE
STARLINK-1097 4.5 20:09:49 10° NW 20:13:43 38° NNE 20:14:29 34° NE
MOS 1 Rocket 3.5 20:08:59 10° NNE 20:14:12 66° E 20:19:07 12° S
STARLINK-1091 3.7 20:12:22 10° WNW 20:16:24 66° SW 20:17:02 55° S
Cosmos 1943 4.4 20:19:28 25° ENE 20:19:28 25° ENE 20:22:19 10° NE
Cosmos 292 Rocket 3.9 20:13:49 10° NNW 20:18:31 53° ENE 20:19:07 49° E
STARLINK-1099 4.4 20:14:48 10° NW 20:18:44 40° NNE 20:19:17 38° NE
Cosmos 1943 Rocket 2.1 20:15:53 10° NNW 20:21:23 65° ENE 20:22:51 47° ESE
STARLINK-1104 4.3 20:19:46 10° NW 20:23:45 42° NNE 20:24:04 42° NE
Cosmos 2074 Rocket 3.9 20:18:04 10° N 20:24:19 67° E 20:26:45 38° SSE
STARLINK-1144 4.2 20:24:43 10° NW 20:28:43 45° NNE 20:28:50 45° NNE
STARLINK-1072 4.0 20:25:27 10° WNW 20:29:19 50° SW 20:29:27 50° SW
Cosmos 1953 2.3 20:29:29 63° SSW 20:30:03 79° W 20:34:02 10° N
IRIDIUM 106 4.3 20:25:01 10° N 20:30:16 80° W 20:32:57 30° S
Meteor 2-10 3.9 20:28:33 37° S 20:30:38 72° E 20:36:09 10° NNE
NOSS 3-3 (A) 3.8 20:25:42 10° SSW 20:31:20 58° ESE 20:37:37 10° NE
NOSS 3-3 (C) 3.8 20:25:49 10° SSW 20:31:26 57° ESE 20:37:43 10° NE
Cosmos 1626 4.5 20:28:41 10° NW 20:31:38 23° W 20:34:34 10° SW
TSX-5 4.5 20:27:49 10° NW 20:32:55 59° WSW 20:33:49 47° SSW
Spot 2 Rocket 3.8 20:33:06 48° ENE 20:33:09 48° ENE 20:38:05 10° N
STARLINK-1103 4.2 20:29:41 10° NW 20:33:37 48° NNE 20:33:37 48° NNE
STARLINK-1096 4.2 20:29:56 10° WNW 20:33:44 46° SW 20:33:44 46° SW
SL-16 R/B 3.4 20:28:27 10° SW 20:33:47 42° WNW 20:39:10 10° NNE
Cosmos 2084 Rocket 3.7 20:31:01 10° NNW 20:35:19 60° NE 20:35:19 60° NE
STARLINK-1079 4.4 20:34:27 10° WNW 20:38:03 42° SW 20:38:03 42° SW
STARLINK-1101 4.2 20:34:40 10° NW 20:38:25 50° NNE 20:38:25 50° NNE
Aureole 3 4.3 20:38:26 23° SW 20:40:43 51° WNW 20:45:29 10° N
STARLINK-1102 4.2 20:39:37 10° NW 20:43:11 51° N 20:43:11 51° N
Aureole 2 Rocket 3.9 20:40:39 10° NNW 20:42:44 33° NNW 20:42:44 33° NNW
H-2A R/B 4.3 20:41:05 10° SW 20:45:11 22° W 20:49:14 10° NW
Terra 3.8 20:49:36 17° NE 20:49:36 17° NE 20:51:20 10° NNE
STARLINK-1111 4.3 20:44:35 10° NW 20:47:58 50° NNW 20:47:58 50° NNW
STARLINK-1073 4.4 20:49:33 10° NW 20:52:45 48° NNW 20:52:45 48° NNW
Cosmos 1603 3.5 20:53:25 45° SSW 20:55:17 87° ESE 21:00:56 10° NNE
Meteor 1-16 Rocket 4.0 20:54:16 58° SSW 20:55:20 82° W 21:00:48 10° N
ATLAS 2AS CENTAUR R/B 3.5 20:49:06 10° NNW 20:56:14 40° NE 20:57:41 36° ENE
Cosmos 1825 Rocket 4.0 20:54:06 10° NNW 20:57:49 59° NW 20:57:49 59° NW
USA 234 4.0 20:53:41 10° NE 20:59:58 51° NNW 21:06:15 10° WSW
MetOp-B 4.0 21:01:14 81° SW 21:01:24 83° WSW 21:06:48 10° NNW
Cosmos 2327 Rocket 4.4 20:56:12 10° N 21:02:30 90° E 21:03:23 68° S
Cosmos 1758 Rocket 4.5 21:03:34 10° NNW 21:07:20 45° WNW 21:07:20 45° WNW
CZ-2C R/B 3.7 21:04:37 10° N 21:09:29 42° WNW 21:14:10 11° SW
Cosmos 1992 Rocket 4.4 21:05:37 10° NNW 21:10:43 57° WSW 21:10:43 57° WSW
COSMOS 2455 4.3 21:06:24 10° N 21:11:09 24° NE 21:11:09 24° NE
Meteor 1-11 4.3 21:06:51 10° N 21:12:06 72° NNE 21:12:06 72° NNE
Cosmos 1295 Rocket 4.4 21:10:51 10° N 21:16:48 77° NE 21:16:48 77° NE
Meteor 2-17 Rocket 4.4 21:14:46 10° N 21:20:54 78° W 21:21:00 77° WSW
Cosmos 1656 Rocket 4.1 21:18:00 10° NNW 21:22:37 57° N 21:22:37 57° N
ISS -0.5 21:20:34 10° NW 21:21:09 14° NW 21:21:09 14° NW
ERS-1 Rocket 4.0 21:28:47 40° N 21:28:47 40° N 21:32:00 10° N
Resurs 01 Rocket 3.7 21:30:38 22° W 21:30:44 22° W 21:34:11 10° NW
Cosmos 2154 Rocket 4.4 21:29:45 10° NNW 21:35:58 58° W 21:36:22 57° WSW
Cosmos 2369 Rocket 3.2 21:34:45 10° NW 21:39:39 39° W 21:39:39 39° W
Cosmos 1943 4.4 22:01:06 38° WNW 22:01:14 38° WNW 22:06:31 10° N
Cosmos 1943 Rocket 4.3 22:00:54 10° WNW 22:04:24 18° W 22:04:24 18° W
NOSS 3-4 (A) 4.2 22:07:47 10° NW 22:13:24 61° NNW 22:13:24 61° NNW
NOSS 3-4 (C) 4.2 22:07:53 10° NW 22:13:29 61° NNW 22:13:29 61° NNW
Terra 4.3 22:28:29 19° NNW 22:28:29 19° NNW 22:29:55 10° NNW
ATLAS 2AS CENTAUR R/B 3.8 22:40:14 10° NW 22:45:08 40° WNW 22:45:08 40° WNW
